星链-31471 (STARLINK-31471 )

导读

STARLINK-31471是美国太空探索技术公司SpaceX星链星座中的一员,于北京时间2024年4月23日发射升空。星链项目旨在构建全球卫星互联网星座,为全球偏远、欠发达地区及传统网络覆盖不足区域提供高速低延迟宽带网络服务。该卫星入轨后将和其他星链卫星协同工作,进一步扩展星链网络的全球覆盖范围,提升系统整体服务能力,推动全球互联网连接的普及。

Basic Information
目录编号:
59568
目录名称:
STARLINK-31471
国际标识:
2024-076E
轨道中心:
EARTH
卫星名称:
星链-31471
卫星全名:
星链-31471 (STARLINK-31471 )
卫星状态:
在轨 (已飞行871 天)
发射日期:
2024-04-23 UTC
国别 :
美国 (US)
星等 :
--
This satellite is enrolled in the Space Conjunction Data Service (SCDS) and the current flight risk assessment level is: High Risk
Orbit Information
数据来源 国际轨道数据 AOE轨道数据
星历时间 2026-09-11T18:45:31+0800
10小时前
查看轨道信息
2026-09-05T12:00:00+0800
6天前
查看轨道信息
半长轴 6861.184km 6861.221km
偏心率 0.0000673 0.0000679
轨道倾角 43.007° 43.007°
近地点辐角 259.629° 98.528°
升交点赤经 39.795° 75.273°
平近点角 100.448° 236.593°
近地点 482.585km 482.618km
远地点 483.509km 483.55km
周期 94.267分钟 94.267分钟
每日圈数 15.27581 15.275685
Detailed Information
固有亮度:
5
最大亮度:
1.5
卫星平台:
Starlink v2.0 mini
覆盖范围:
全球
运营商:
太空探索技术公司
运营商所在国:
美国
制造商(研发单位):
太空探索技术公司
制造商所在国:
美国
使用方式:
暂无
Satellite Introduction
星链(Starlink)计划是由太空探索技术公司(SpaceX)提出的一个巨型低轨卫星互联网星座项目,计划在2019年至2024年间在太空搭建由约1.2万颗卫星组成的“星链”网络,其中1584颗将部署在地球上空550千米处的近地轨道,并从2020年开始工作。该卫星仍在工作。
2D Orbit Map
3D Orbit Map
Orbit Altitude Analysis Chart
Orbit Inclination Analysis Chart
Orbit Comprehensive Analysis Chart
View Comprehensive Chart
Miss Distance Evolution Trend with All Objects
Collision Probability Evolution Trend with All Objects